Hourly Data Report for September 10, 2019

All times are specified in Local Standard Time (LST). Add 1 hour to adjust for Daylight Saving Time where and when it is observed.

EUREKA CLIMATE
NUNAVUT
Current Station Operator: ECCC - MSC

79°59'21.000" N
85°56'02.000" W
10.00 m
2401199
71613
NEK

Download Data

Hourly Data (September 2019)
Hourly Data Report for September 10, 2019
TIME Temp Definition
°C
Dew Point Definition
°C
Rel Hum Definition
%
Wind Dir Definition
10's deg

Wind Spd Definition
km/h
Visibility Definition
km
Stn Press Definition
kPa
Hmdx Definition


Wind Chill Definition


Weather Definition


00:00 -1.4 -3.1 88 35 9   100.86   -5 LegendNANA
01:00 -0.8 -3.1 84 32 29   100.84   -7 LegendNANA
02:00 -0.5 -3.4 81 28 23   100.87   -6 LegendNANA
03:00 -0.2 -5.1 69 10 6   100.88   -2 LegendNANA
04:00 -0.5 -4.8 73 30 15   100.86   -5 LegendNANA
05:00 -0.9 -3.6 82 28 18   100.92   -6 LegendNANA
06:00 -1.1 -4.4 78 32 16   100.94   -6 LegendNANA
07:00 -0.8 -3.9 79 30 25   100.90   -7 LegendNANA
08:00 -0.9 -4.2 78 29 17   100.93   -6 LegendNANA
09:00 -0.7 -4.7 74 28 20   100.87   -6 LegendNANA
10:00 -0.9 -4.1 79 36 6   100.87   -3 LegendNANA
11:00 -1.3 -3.4 85 30 21   100.88   -7 LegendNANA
12:00 -1.2 -3.1 87 30 39   100.85   -9 LegendNANA
13:00 -0.9 -3.3 84 26 9   100.89   -4 LegendNANA
14:00 -1.1 -3.6 83 5 6   100.92   -3 LegendNANA
15:00 -1.0 -3.5 83 33 13   100.93   -5 LegendNANA
16:00 -1.5 -3.6 86 35 17   100.94   -7 LegendNANA
17:00 -1.9 -3.8 87 35 33   100.92   -9 LegendNANA
18:00 -2.0 -3.7 88 1 23   100.99   -8 LegendNANA
19:00 -1.9 -3.8 87 35 9   101.01   -5 LegendNANA
20:00 -2.1 -3.6 89 36 19   101.02   -8 LegendNANA
21:00 -2.2 -3.7 89 1 18   101.04   -8 LegendNANA
22:00 -2.0 -3.7 88 1 17   101.02   -7 LegendNANA
23:00 -1.8 -3.8 86 35 7   101.05   -4 LegendNANA

Notes on Data Quality.

Legend

  • E = Estimated
  • M = Missing
  • NA = Not Available
Date modified: